Regional Weather Roundup
Issued by NWS Mobile, AL

Home | Current Version | Previous Version | Text Only | Print | Product List | Glossary On
Versions: 1 2 3 4 5 6 7 8 9 10 11 12 13 14 15 16 17 18 19 20 21 22 23 24 25 26 27 28 29 30 31 32 33 34 35 36 37 38 39 40 41 42 43 44 45 46 47 48 49 50
000
ASUS44 KMOB 291510
RWRMOB
REGIONAL WEATHER ROUNDUP
NATIONAL WEATHER SERVICE MOBILE AL
1000 AM CDT TUE JUL 29 2014

NOTE: "FAIR" INDICATES FEW OR NO CLOUDS BELOW 12,000 FEET WITH NO
      SIGNIFICANT WEATHER AND/OR OBSTRUCTIONS TO VISIBILITY.

  * THESE STATIONS ARE PART OF THE UNIVERSITY OF SOUTH ALABAMA
    MESONET AND ARE NOT UNDER NWS OR FAA QUALITY CONTROL.

ALZ061>064-291600-
COASTAL ALABAMA

CITY           SKY/WX    TMP DP  RH WIND       PRES   REMARKS
MOBILE REG APT MOSUNNY   81  67  62 N10       30.06S
BROOKLEY FIELD SUNNY     82  68  62 N9        30.06S
USA CAMPUS*      N/A     81  68  65 E8        30.03F
DOG RIVER*       N/A     81  68  65 N2        30.05S


CITY           SKY/WX    TMP DP  RH WIND       PRES   REMARKS
MOUNT VERNON*    N/A     79  66  65 N5        30.06S
SARALAND*      NOT AVBL
BAY MINETTE*   NOT AVBL
LOXLEY*          N/A     79  66  65 NE7       30.05S
ROBERTSDALE*     N/A     77  66  69 NE5       30.05S
FAIRHOPE*        N/A     81  68  65 NE8       30.04S
ELBERTA*         N/A     81  68  65 N3        30.03S
FOLEY*         NOT AVBL
GRAND BAY*       N/A     81  66  61 N6        30.04S
DAUPHIN ISLND* NOT AVBL
BON SCOUR NWR* NOT AVBL
GULF SHORES      N/A     81  67  63 NE7       30.03S

$$

ALZ051>060-291600-
INTERIOR SOUTHWEST AND SOUTH CENTRAL ALABAMA

CITY           SKY/WX    TMP DP  RH WIND       PRES   REMARKS
GREENVILLE     SUNNY     82  63  52 NE8       30.05R
EVERGREEN      SUNNY     83  65  54 N7        30.06S
CASTLEBERRY*   NOT AVBL
ATMORE*          N/A     79  68  69 N5        30.07S
DIXIE*         NOT AVBL
ANDALUSIA/OPP  SUNNY     86  64  47 E7        30.04S
ANDALUSIA*     NOT AVBL
FLORALA APT    SUNNY     82  66  58 N6        30.05S
FLORALA*         N/A     79  64  61 NW6       30.01S

$$

FLZ001>006-291600-
WESTERN FLORIDA PANHANDLE

CITY           SKY/WX    TMP DP  RH WIND       PRES   REMARKS
PENSACOLA      SUNNY     79  65  62 NE9       30.03S
NAS PENSACOLA  PTSUNNY   83  68  60 N7        30.02F
MILTON         MOSUNNY   81  64  56 N8        30.04S
WHTNG S FIELD  MOSUNNY   83  66  56 N8        30.04S


CITY           SKY/WX    TMP DP  RH WIND       PRES   REMARKS
WALNUT HILL*   NOT AVBL
JAY*           NOT AVBL
DUKE FIELD     MOSUNNY   82  69  65 N8        30.03S
CRESTVIEW      SUNNY     83  67  58 N7        30.05R
VALPARAISO     MOSUNNY   83  67  58 N6        30.02S
DESTIN         SUNNY     84  69  60 N7        30.02S

$$

MSZ076-079-291600-
INTERIOR SOUTHEAST MISSISSIPPI

CITY           SKY/WX    TMP DP  RH WIND       PRES   REMARKS
LEAKESVILLE*   NOT AVBL
AGRICOLA*      NOT AVBL

$$

MARINE OBSERVATIONS

STATION/POSITION TIME  TEMP    WIND        PRES    WAVE
                       AIR SEA DIR/SP/G            HT/PER
                 (UTC) (F)     (DEG/KT/KT) (MB)    (FT/S)
PASCAGOULA       1500   80      30/  6/  8 1017.4R
PETIT BOIS ISLND 1500   81      30/  9/ 11 1017.6S
GRAND BAY        1400   78      20/  9     1018.0S
KATRINA CUT      1400   80      40/ 11     1018.0S
CEDAR POINT      1400   77      30/ 11     1017.6S
E DAUPHIN ISLAND 1400   78      10/ 13/ 15 1017.2R
MIDDLE BAY LIGHT 1400   79      30/ 11     1016.6F
USCG MOBILE BAY  1500   79 85   40/  9/ 12 1016.5F
STATE DOCKS      1500   84 85              1017.4S
MEAHER PARK      1400   79      10/  4     1017.3S
WEEKS BAY        1400   77                   N/A
12 S ORANGE BCH  1500   79 84   20/ 12/ 14 1017.0R   2/ 3
PENSACOLA BAY    1500   83 86   30/  6/ 10 1017.2R
64 S DAUPHIN ISL 1406   82 86   20/ 14/ 16 1017.2R
67 S FORT MORGAN 1400   84                 1019.0S

$$

SELECTED LOCATIONS ACROSS THE REGION

CITY           SKY/WX    TMP DP  RH WIND       PRES   REMARKS
NEW ORLEANS    CLOUDY    85  69  58 NE10      30.06F
GULFPORT       PTSUNNY   86  65  49 N7        30.05S
PASCAGOULA AP  MOSUNNY   82  67  60 N9        30.05S
PASCAGOULA*      N/A     81  66  61 VRB7      30.04S
HATTIESBURG    SUNNY     81  65  58 NE8       30.08S
LAUREL         SUNNY     81  64  57 NE10      30.09S
MERIDIAN       SUNNY     81  62  52 N8        30.08S
JACKSON        MOSUNNY   82  65  56 N8        30.10R
MONTGOMERY     SUNNY     83  61  47 NW7       30.04S
TROY           SUNNY     82  62  50 MISG      30.05R
KINSTON*       NOT AVBL
GENEVA*          N/A     81  66  61 NE3       30.05R
ASHFORD*       NOT AVBL
DOTHAN         SUNNY     80  66  62 N7        30.06S
PANAMA CITY    MOSUNNY   84  67  56 N6        30.00R

$$



USA.gov is the U.S. government's official web portal to all federal, state and local government web resources and services.